HULIANWANG DIGUI 6D

Last updated on Wed Aug 13 2025 00:02:08 GMT+0000 (Coordinated Universal Time)

1 65046U 25162D 25224.16417175 .00000014 00000+0 10149-3 0 9996 2 65046 50.0004 322.7433 0006213 309.7384 50.2973 14.05678468 1817
UTC large
Height (km)
Speed (km/s)
/
Latitude / Longitude
Inclination (degrees)
Orbital Period (minutes)
Azimuth
Elevation
Range (km)
Doppler Factor

Next 0 passes for location: London (51.5072 / 0.1276)

Sorry there are no passes over London.